Weather History for Lake Hood, AK

Change the Weather History Date:

Tuesday, August 13, 2013

  Actual Average Record
Temperature  
Mean Temperature 63 °F -  
Max Temperature 72 °F 63 °F 80 °F (2007)
Min Temperature 55 °F 50 °F 46 °F (1998)
Degree Days  
Heating Degree Days 2    
Growing Degree Days 13 (Base 50)    
Moisture  
Dew Point 55 °F    
Average Humidity 85    
Maximum Humidity 94    
Minimum Humidity 53    
Precipitation  
Precipitation 0.00 in - - ()
Sea Level Pressure  
Sea Level Pressure 30.01 in    
Wind  
Wind Speed 2 mph (West)    
Max Wind Speed 13 mph    
Max Gust Speed -    
Visibility 8 miles    
Events Fog    
Averages and records for this station are not official NWS values.
T = Trace of Precipitation, MM = Missing Value Source: NWS Daily Summary

Daily Weather History Graph

Daily Weather History Graph

Search for Another Location

Airport:

Trip Planner

Search our weather history database for the weather conditions in past years. The results will help you decide how hot, cold, wet, or windy it might be!

Date:

Astronomy

Aug. 13, 2013 Rise Set
Actual Time 6:04 AM AKDT 10:02 PM AKDT
Civil Twilight 5:08 AM AKDT 10:57 PM AKDT
Nautical Twilight 3:38 AM AKDT 12:24 AM AKDT
Astronomical Twilight Sun does not rise Sun does not rise
Moon 3:29 PM AKDT (8/13) 11:23 PM AKDT (8/13)
Length of Visible Light 17h 49m
Length of Day
15h 58m
Waxing Crescent, 43% of the Moon is Illuminated
Aug 13
Waxing Crescent
Aug 14
First Quarter
Aug 20
Full
Aug 28
Last Quarter
Sep 5
New

Hourly Weather History & Observations

Time (AKDT) Temp. Dew Point Humidity Pressure Visibility Wind Dir Wind Speed Gust Speed Precip Events Conditions
12:04 AM 59.0 °F 55.4 °F 88% 30.03 in 10.0 mi Calm Calm - N/A   Mostly Cloudy
12:32 AM 57.2 °F 55.4 °F 94% 30.03 in 10.0 mi Calm Calm - N/A   Scattered Clouds
12:53 AM 57.9 °F 55.0 °F 90% 30.03 in 10.0 mi Calm Calm - N/A   Clear
1:46 AM 57.2 °F 55.4 °F 94% 30.02 in 10.0 mi Calm Calm - N/A   Scattered Clouds
1:53 AM 57.9 °F 55.9 °F 93% 30.03 in 10.0 mi Calm Calm - N/A   Mostly Cloudy
2:04 AM 57.2 °F 55.4 °F 94% 30.02 in 10.0 mi Calm Calm - N/A   Overcast
2:15 AM 57.2 °F 55.4 °F 94% 30.02 in 0.5 mi SSW 3.5 mph - N/A   Overcast
2:24 AM 57.2 °F 55.4 °F 94% 30.02 in 0.2 mi Calm Calm - N/A Fog Fog
2:53 AM 57.9 °F 55.9 °F 93% 30.02 in 0.2 mi Calm Calm - N/A Fog Fog
3:06 AM 57.2 °F 55.4 °F 94% 30.02 in 0.2 mi Calm Calm - N/A Fog Fog
3:23 AM 57.2 °F 55.4 °F 94% 30.01 in 0.5 mi Calm Calm - N/A Fog Fog
3:31 AM 57.2 °F 55.4 °F 94% 30.01 in 0.8 mi Calm Calm - N/A   Mostly Cloudy
3:34 AM 57.2 °F 55.4 °F 94% 30.01 in 1.2 mi Calm Calm - N/A   Scattered Clouds
3:39 AM 57.2 °F 55.4 °F 94% 30.01 in 3.0 mi Calm Calm - N/A   Partly Cloudy
3:53 AM 57.0 °F 55.0 °F 93% 30.01 in 4.0 mi Calm Calm - N/A   Clear
4:04 AM 57.2 °F 55.4 °F 94% 30.01 in 4.0 mi Calm Calm - N/A   Scattered Clouds
4:13 AM 57.2 °F 55.4 °F 94% 30.01 in 5.0 mi Calm Calm - N/A   Mostly Cloudy
4:53 AM 57.0 °F 55.0 °F 93% 30.01 in 10.0 mi South 3.5 mph - N/A   Overcast
5:48 AM 55.4 °F 53.6 °F 94% 30.01 in 10.0 mi Calm Calm - N/A   Overcast
5:53 AM 55.9 °F 53.1 °F 90% 30.01 in 10.0 mi Calm Calm - N/A   Overcast
6:53 AM 57.0 °F 54.0 °F 89% 30.01 in 10.0 mi Calm Calm - N/A   Overcast
7:05 AM 55.4 °F 53.6 °F 94% 30.00 in 10.0 mi Calm Calm - N/A   Overcast
7:30 AM 57.2 °F 53.6 °F 88% 30.00 in 9.0 mi Calm Calm - N/A   Overcast
7:53 AM 57.9 °F 55.0 °F 90% 30.00 in 6.0 mi Calm Calm - N/A   Mostly Cloudy
8:13 AM 57.2 °F 55.4 °F 94% 30.00 in 6.0 mi Calm Calm - N/A   Mostly Cloudy
8:42 AM 57.2 °F 55.4 °F 94% 30.00 in 8.0 mi Calm Calm - N/A   Overcast
8:53 AM 57.9 °F 55.0 °F 90% 30.00 in 10.0 mi Calm Calm - N/A   Overcast
9:29 AM 59.0 °F 55.4 °F 88% 30.00 in 10.0 mi Calm Calm - N/A   Overcast
9:53 AM 60.1 °F 55.0 °F 83% 30.01 in 10.0 mi Calm Calm - N/A   Overcast
10:14 AM 60.8 °F 55.4 °F 82% 30.00 in 10.0 mi North 3.5 mph - N/A   Overcast
10:22 AM 60.8 °F 55.4 °F 82% 30.01 in 10.0 mi North 3.5 mph - N/A   Overcast
10:53 AM 62.1 °F 55.9 °F 80% 30.01 in 10.0 mi NNW 3.5 mph - N/A   Overcast
11:16 AM 62.6 °F 55.4 °F 77% 30.01 in 10.0 mi North 3.5 mph - N/A   Overcast
11:53 AM 64.0 °F 57.0 °F 78% 30.01 in 10.0 mi North 3.5 mph - N/A   Mostly Cloudy
12:12 PM 66.2 °F 57.2 °F 73% 30.00 in 10.0 mi North 3.5 mph - N/A   Scattered Clouds
12:53 PM 66.9 °F 57.0 °F 70% 30.00 in 10.0 mi NNW 4.6 mph - N/A   Partly Cloudy
1:53 PM 68.0 °F 57.0 °F 68% 29.99 in 10.0 mi Calm Calm - N/A   Clear
2:53 PM 69.1 °F 51.1 °F 53% 29.99 in 10.0 mi South 5.8 mph - N/A   Clear
3:53 PM 71.1 °F 55.0 °F 57% 29.98 in 10.0 mi WNW 3.5 mph - N/A   Clear
4:53 PM 66.9 °F 57.0 °F 70% 29.98 in 10.0 mi West 9.2 mph - N/A   Clear
5:53 PM 64.9 °F 57.0 °F 75% 29.98 in 10.0 mi West 12.7 mph - N/A   Mostly Cloudy
6:53 PM 63.0 °F 55.0 °F 75% 29.99 in 10.0 mi West 10.4 mph - N/A   Mostly Cloudy
7:41 PM 60.8 °F 53.6 °F 77% 30.00 in 10.0 mi WSW 9.2 mph - N/A   Overcast
7:53 PM 62.1 °F 53.1 °F 72% 30.00 in 10.0 mi West 11.5 mph - N/A   Mostly Cloudy
8:00 PM 60.8 °F 53.6 °F 77% 30.00 in 10.0 mi West 11.5 mph - N/A   Mostly Cloudy
8:53 PM 60.1 °F 53.1 °F 78% 30.02 in 10.0 mi WSW 4.6 mph - N/A   Mostly Cloudy
9:06 PM 60.8 °F 53.6 °F 77% 30.02 in 10.0 mi Variable 5.8 mph - N/A   Overcast
9:45 PM 57.2 °F 51.8 °F 82% 30.02 in 10.0 mi SSW 5.8 mph - N/A   Scattered Clouds
9:53 PM 57.0 °F 52.0 °F 83% 30.03 in 10.0 mi SW 6.9 mph - N/A   Partly Cloudy
10:53 PM 57.9 °F 52.0 °F 81% 30.04 in 10.0 mi SSW 6.9 mph - N/A   Overcast
11:53 PM 57.0 °F 51.1 °F 81% 30.04 in 10.0 mi SSW 5.8 mph - N/A   Overcast